Big Rapids, MI

10:47 AM EST on December 15, 2019 (GMT -0500)
Roben-Hood

Weather History for KRQB - July, 2019

Change the Weather History Date:

Tuesday, July 16, 2019

  Actual Average Record
Temperature  
Mean Temperature 77 °F -  
Max Temperature 84 °F 83 °F 96 °F (2002)
Min Temperature 69 °F 56 °F 42 °F (1987)
Cooling Degree Days 12    
Growing Degree Days 27 (Base 50)    
Moisture  
Dew Point 67 °F    
Average Humidity 73    
Maximum Humidity 92    
Minimum Humidity 58    
Precipitation  
Precipitation 0.00 in - - ()
Sea Level Pressure  
Sea Level Pressure 29.93 in    
Wind  
Wind Speed 7 mph (SW)    
Max Wind Speed 12 mph    
Max Gust Speed 18 mph    
Visibility 10 miles    
Events Rain    
Averages and records for this station are not official NWS values.
T = Trace of Precipitation, MM = Missing Value Source: NWS Daily Summary

Daily Weather History Graph

Daily Weather History Graph

Search for Another Location

Airport or City:

Astronomy

Jul. 16, 2019 Rise Set
Actual Time 6:14 AM EDT 9:20 PM EDT
Civil Twilight 5:40 AM EDT 9:55 PM EDT
Nautical Twilight 4:55 AM EDT 10:39 PM EDT
Astronomical Twilight 4:02 AM EDT 11:32 PM EDT
Moon 9:26 PM EDT (7/16) 5:51 AM EDT (7/16)
Length of Visible Light 16h 15m
Length of Day
15h 06m
Full, 100% of the Moon is Illuminated
Jul 16
Full
Jul 16
Full
Jul 24
Last Quarter
Jul 31
New
Aug 7
First Quarter

Hourly Weather History & Observations

Time (EDT) Temp. Heat Index Dew Point Humidity Pressure Visibility Wind Dir Wind Speed Gust Speed Precip Events Conditions
12:15 AM 77.7 °F - 65.3 °F 65% 29.98 in 10.0 mi WSW 9.2 mph - N/A   Clear
12:35 AM 77.4 °F - 65.3 °F 66% 29.97 in 10.0 mi SW 9.2 mph - N/A   Clear
12:36 AM 77.4 °F - 65.3 °F 66% 29.97 in 10.0 mi SW 9.2 mph - N/A   Clear
12:59 AM 77.2 °F - 64.8 °F 65% 29.97 in 10.0 mi WSW 10.4 mph 18.4 mph N/A   Clear
1:17 AM 77.2 °F - 64.6 °F 65% 29.97 in 10.0 mi WSW 10.4 mph - N/A   Clear
1:35 AM 77.0 °F - 64.4 °F 65% 29.98 in 10.0 mi WSW 10.4 mph - N/A   Clear
1:55 AM 77.0 °F - 63.7 °F 63% 29.97 in 10.0 mi WSW 8.1 mph 17.3 mph N/A   Clear
1:56 AM 77.0 °F - 63.7 °F 63% 29.97 in 10.0 mi WSW 9.2 mph 17.3 mph N/A   Clear
2:19 AM 77.0 °F - 63.1 °F 62% 29.97 in 10.0 mi WSW 8.1 mph - N/A   Clear
2:36 AM 76.5 °F - 63.1 °F 63% 29.96 in 10.0 mi WSW 8.1 mph - N/A   Clear
2:55 AM 76.1 °F - 63.1 °F 64% 29.95 in 10.0 mi WSW 6.9 mph - N/A   Clear
2:56 AM 75.9 °F - 63.1 °F 64% 29.95 in 10.0 mi WSW 6.9 mph - N/A   Clear
3:15 AM 75.6 °F - 63.0 °F 65% 29.94 in 10.0 mi WSW 6.9 mph - N/A   Clear
3:39 AM 74.7 °F - 63.0 °F 67% 29.94 in 10.0 mi WSW 6.9 mph - N/A   Clear
3:57 AM 73.9 °F - 63.0 °F 68% 29.94 in 10.0 mi WSW 5.8 mph - N/A   Clear
4:15 AM 73.2 °F - 62.8 °F 70% 29.94 in 10.0 mi SW 4.6 mph - N/A   Clear
4:16 AM 73.0 °F - 62.8 °F 70% 29.93 in 10.0 mi SW 5.8 mph - N/A   Clear
4:35 AM 72.1 °F - 62.8 °F 72% 29.93 in 10.0 mi SW 5.8 mph - N/A   Clear
4:55 AM 72.1 °F - 62.8 °F 72% 29.93 in 10.0 mi SSW 8.1 mph - N/A   Clear
5:00 AM 72.1 °F - 62.8 °F 72% 29.93 in 10.0 mi WSW 3.5 mph - N/A   Clear
5:18 AM 71.8 °F - 63.0 °F 74% 29.93 in 10.0 mi WSW 5.8 mph - N/A   Clear
5:36 AM 71.8 °F - 62.8 °F 73% 29.92 in 10.0 mi SW 5.8 mph - N/A   Clear
5:55 AM 71.1 °F - 63.0 °F 75% 29.92 in 10.0 mi SW 6.9 mph - N/A   Clear
5:56 AM 71.1 °F - 63.0 °F 75% 29.92 in 10.0 mi SSW 8.1 mph - N/A   Clear
6:15 AM 71.1 °F - 63.0 °F 75% 29.90 in 10.0 mi South 9.2 mph - N/A   Clear
6:16 AM 71.1 °F - 63.0 °F 75% 29.90 in 10.0 mi South 9.2 mph - N/A   Clear
6:39 AM 70.7 °F - 63.3 °F 77% 29.91 in 10.0 mi SW 4.6 mph - N/A   Clear
6:57 AM 70.9 °F - 63.5 °F 77% 29.91 in 10.0 mi SW 5.8 mph - N/A   Clear
7:15 AM 71.6 °F - 63.5 °F 76% 29.92 in 10.0 mi SW 5.8 mph - N/A   Clear
7:35 AM 72.5 °F - 63.9 °F 74% 29.94 in 10.0 mi WSW 4.6 mph - N/A   Scattered Clouds
7:36 AM 72.5 °F - 63.9 °F 74% 29.94 in 10.0 mi WSW 4.6 mph - N/A   Scattered Clouds
7:55 AM 73.4 °F - 64.8 °F 74% 29.95 in 10.0 mi WSW 6.9 mph - N/A   Scattered Clouds
8:18 AM 73.9 °F - 64.9 °F 73% 29.96 in 10.0 mi West 8.1 mph - N/A   Mostly Cloudy
8:36 AM 73.6 °F - 65.7 °F 76% 29.96 in 10.0 mi WSW 9.2 mph - N/A   Overcast
8:55 AM 73.9 °F - 66.4 °F 77% 29.96 in 10.0 mi WSW 5.8 mph - N/A   Overcast
8:56 AM 74.1 °F - 66.6 °F 77% 29.96 in 10.0 mi WSW 6.9 mph - N/A   Overcast
9:15 AM 74.1 °F - 66.4 °F 77% 29.96 in 10.0 mi WSW 9.2 mph - N/A   Overcast
9:19 AM 74.3 °F - 66.4 °F 76% 29.96 in 10.0 mi WSW 9.2 mph - N/A   Overcast
9:36 AM 74.3 °F - 66.7 °F 77% 29.95 in 10.0 mi WSW 5.8 mph - N/A   Overcast
9:56 AM 75.6 °F - 67.3 °F 75% 29.95 in 3.0 mi WSW 6.9 mph - N/A   Haze
10:15 AM 74.7 °F - 67.1 °F 77% 29.95 in 10.0 mi WSW 6.9 mph - N/A   Overcast
10:16 AM 74.7 °F - 67.3 °F 78% 29.95 in 10.0 mi West 8.1 mph - N/A   Overcast
10:35 AM 74.3 °F - 67.3 °F 79% 29.96 in 10.0 mi WSW 8.1 mph - N/A   Overcast
10:39 AM 74.3 °F - 67.5 °F 79% 29.96 in 10.0 mi West 10.4 mph 16.1 mph N/A   Overcast
10:57 AM 73.6 °F - 68.0 °F 83% 29.96 in 10.0 mi West 11.5 mph - N/A   Overcast
11:15 AM 73.0 °F - 68.4 °F 85% 29.96 in 10.0 mi West 5.8 mph - N/A   Overcast
11:16 AM 73.0 °F - 68.4 °F 85% 29.96 in 10.0 mi West 5.8 mph - N/A   Overcast
11:35 AM 73.4 °F - 69.1 °F 86% 29.96 in 5.0 mi WSW 6.9 mph - N/A Rain Light Rain
11:55 AM 73.8 °F - 69.8 °F 87% 29.96 in 7.0 mi WSW 5.8 mph - N/A   Overcast
11:59 AM 74.1 °F - 70.0 °F 87% 29.96 in 7.0 mi WSW 6.9 mph - N/A   Overcast
12:16 PM 74.3 °F - 69.4 °F 85% 29.97 in 10.0 mi WSW 9.2 mph - N/A   Overcast
12:35 PM 75.4 °F - 70.3 °F 84% 29.96 in 10.0 mi WSW 9.2 mph - N/A   Overcast
12:36 PM 75.7 °F - 70.3 °F 83% 29.96 in 10.0 mi West 10.4 mph - N/A   Overcast
12:55 PM 75.6 °F - 69.3 °F 81% 29.96 in 10.0 mi WSW 6.9 mph 16.1 mph N/A   Overcast
12:56 PM 75.6 °F - 69.3 °F 81% 29.96 in 10.0 mi WSW 5.8 mph 9.2 mph N/A   Overcast
1:19 PM 77.5 °F - 69.6 °F 76% 29.95 in 10.0 mi SW 10.4 mph - N/A   Overcast
1:37 PM 79.3 °F - 69.6 °F 72% 29.95 in 10.0 mi SSW 8.1 mph - N/A   Overcast
1:55 PM 80.1 °F 82.9 °F 69.1 °F 69% 29.94 in 10.0 mi West 9.2 mph - N/A   Overcast
2:15 PM 80.2 °F 83.1 °F 68.7 °F 68% 29.94 in 10.0 mi WSW 9.2 mph - N/A   Overcast
2:16 PM 80.2 °F 83.1 °F 68.7 °F 68% 29.94 in 10.0 mi SW 9.2 mph - N/A   Overcast
2:35 PM 81.1 °F 84.2 °F 68.7 °F 66% 29.93 in 10.0 mi SW 8.1 mph 17.3 mph N/A   Mostly Cloudy
2:58 PM 81.7 °F 84.9 °F 69.1 °F 65% 29.92 in 10.0 mi WSW 5.8 mph - N/A   Overcast
3:16 PM 82.6 °F 85.9 °F 68.7 °F 63% 29.92 in 10.0 mi WSW 8.1 mph - N/A   Mostly Cloudy
3:35 PM 83.3 °F 86.9 °F 69.1 °F 62% 29.91 in 10.0 mi WSW 10.4 mph - N/A   Mostly Cloudy
3:36 PM 83.3 °F 86.9 °F 68.9 °F 62% 29.91 in 10.0 mi WSW 10.4 mph - N/A   Mostly Cloudy
3:55 PM 82.9 °F 86.0 °F 68.4 °F 61% 29.90 in 10.0 mi SW 11.5 mph 18.4 mph N/A   Mostly Cloudy
4:18 PM 83.1 °F 86.3 °F 68.5 °F 61% 29.90 in 10.0 mi West 11.5 mph - N/A   Mostly Cloudy
4:35 PM 84.2 °F 87.3 °F 68.2 °F 58% 29.89 in 10.0 mi SSW 8.1 mph - N/A   Mostly Cloudy
4:55 PM 84.0 °F 87.3 °F 68.4 °F 59% 29.89 in 10.0 mi SSW 10.4 mph - N/A   Mostly Cloudy
4:56 PM 84.0 °F 87.3 °F 68.4 °F 59% 29.89 in 10.0 mi SSW 8.1 mph - N/A   Mostly Cloudy
5:15 PM 82.9 °F 86.3 °F 68.7 °F 62% 29.88 in 10.0 mi SSW 8.1 mph - N/A   Mostly Cloudy
5:16 PM 82.9 °F 86.3 °F 68.7 °F 62% 29.88 in 10.0 mi SW 8.1 mph - N/A   Mostly Cloudy
5:39 PM 84.2 °F 87.6 °F 68.4 °F 59% 29.88 in 10.0 mi WSW 8.1 mph - N/A   Scattered Clouds
5:57 PM 83.1 °F 86.6 °F 68.9 °F 62% 29.88 in 10.0 mi SW 6.9 mph - N/A   Mostly Cloudy
6:15 PM 83.5 °F 87.2 °F 69.1 °F 62% 29.88 in 10.0 mi SW 6.9 mph - N/A   Mostly Cloudy
6:35 PM 83.3 °F 86.9 °F 68.9 °F 62% 29.88 in 10.0 mi SW 6.9 mph - N/A   Scattered Clouds
6:36 PM 83.3 °F 86.9 °F 68.9 °F 62% 29.88 in 10.0 mi SW 6.9 mph - N/A   Scattered Clouds
6:55 PM 82.6 °F 85.9 °F 68.7 °F 63% 29.87 in 10.0 mi SW 4.6 mph - N/A   Scattered Clouds
7:00 PM 82.8 °F 86.0 °F 68.7 °F 62% 29.87 in 10.0 mi SW 6.9 mph - N/A   Scattered Clouds
7:18 PM 81.9 °F 85.2 °F 69.1 °F 65% 29.87 in 10.0 mi SW 4.6 mph - N/A   Scattered Clouds
7:36 PM 82.2 °F 85.5 °F 68.9 °F 64% 29.87 in 10.0 mi WSW 6.9 mph - N/A   Scattered Clouds
7:55 PM 81.5 °F 84.6 °F 68.9 °F 65% 29.88 in 10.0 mi WSW 4.6 mph - N/A   Scattered Clouds
7:56 PM 81.5 °F 84.8 °F 69.1 °F 66% 29.88 in 10.0 mi SW 5.8 mph - N/A   Scattered Clouds
8:15 PM 80.8 °F 83.9 °F 69.3 °F 68% 29.88 in 10.0 mi SW 3.5 mph - N/A   Scattered Clouds
8:16 PM 80.8 °F 83.9 °F 69.3 °F 68% 29.88 in 10.0 mi SW 3.5 mph - N/A   Scattered Clouds
8:39 PM 79.7 °F - 69.8 °F 72% 29.88 in 10.0 mi Calm Calm - N/A   Clear
8:57 PM 78.1 °F - 70.2 °F 77% 29.88 in 10.0 mi Calm Calm - N/A   Clear
9:16 PM 75.7 °F - 70.3 °F 83% 29.89 in 10.0 mi Calm Calm - N/A   Clear
9:35 PM 75.7 °F - 70.2 °F 83% 29.89 in 10.0 mi Calm Calm - N/A   Clear
9:55 PM 74.7 °F - 69.8 °F 85% 29.89 in 10.0 mi Calm Calm - N/A   Clear
10:00 PM 74.5 °F - 69.6 °F 85% 29.90 in 10.0 mi Calm Calm - N/A   Clear
10:17 PM 72.9 °F - 69.6 °F 90% 29.90 in 10.0 mi Calm Calm - N/A   Clear
10:35 PM 73.0 °F - 69.3 °F 88% 29.90 in 10.0 mi Calm Calm - N/A   Clear
10:36 PM 72.7 °F - 69.1 °F 88% 29.90 in 10.0 mi SW 3.5 mph - N/A   Clear
10:55 PM 71.6 °F - 69.1 °F 92% 29.91 in 10.0 mi Calm Calm - N/A   Clear
10:56 PM 71.6 °F - 69.1 °F 92% 29.91 in 10.0 mi Calm Calm - N/A   Clear
11:19 PM 71.6 °F - 69.1 °F 92% 29.91 in 10.0 mi Calm Calm - N/A   Clear
11:37 PM 71.4 °F - 68.9 °F 92% 29.91 in 10.0 mi Calm Calm - N/A   Clear
11:55 PM 69.8 °F - 67.3 °F 92% 29.91 in 10.0 mi WNW 5.8 mph - N/A   Clear